STARLINK-5608, 55353

Orbit data source: Space-Track

STARLINK-5608, 55353 is a payload satellite owned by SpaceX/Seattle (US) in LEO that was launched on Thu, 26 Jan 2023 UTC via an FALCON 9 launch vehicle from the Air Force Eastern Test Range (AFETR). Payload-class satellites include a variety of spacecraft equipped with specific instruments for various scientific and technological missions. These include communications satellites like Starlink; space stations such as the ISS; scientific satellites like the Hubble; Earth observation satellites from companies like Planet Labs, Umbra, and HawkEye 360; GPS; miniature CubeSats for education and research; and military/defense satellites.

Loading next visibility...
Identifier
55353, 2023-013Y
Orbit
LEO
Country
Flag of USUS
Related business
Manufacturer
SpaceX/Seattle
Mission
Operational Commercial Communications
Bus & Motor
STARLINK, Unknown motor
Mass
305 kg wet, ~290 kg dry
Launch date (UTC)
2023-01-26 (3 years ago)
Launch vehicle
FALCON 9
Launch site
Air Force Eastern Test Range (AFETR)
Object type
Payload
Rocket body
Debris
Shape & HBR
Box + 1 Pan, 10.1 m
Radar Cross Section
13.562 m², Large (>1 m²)

Expand to show TLE details & history
Last TLE update: 2 days ago

TLE from 2 days ago
0 STARLINK-5608
1 55353U 23013Y   26171.13406896 -.00002482  00000-0 -80720-4 0  9993
2 55353  43.0093  81.2096 0002021 252.4629 107.6002 15.27558468187387
Epoch: 2026-06-20T03:13Z
TLE epoch observation values (Epoch: 2026-06-20T03:13:03.558Z)
Latitude
-0°
Longitude
124.59171°
Altitude
483.31 km
Speed
7.625 km/s
True Right ascension
05h 24m 50s
True Declination
0° 00' 00"
Sunlit
Object was in daylight at epoch
Visualization orbit readout
Latitude
Unknown
Longitude
Unknown
Altitude
Unknown
Speed
Unknown
Apparent Right ascension
Unknown
Apparent Declination
Unknown
Sunlit
N/A
Visualization observer readout
Local Sidereal Time
21:40:47
Azimuth
Unknown
Elevation
Unknown
Doppler factor
Unknown
Orbital elements
Apogee altitude
486.444 km
Perigee altitude
483.67 km
Semi-major axis
6,863.194 km
Eccentricity
0.0002
Inclination
43.0093°
RAAN
81.2096°
Arg. of periapsis
252.4629°
True anomaly
107.62227°
Mean anomaly
107.6002°
Eccentric anomaly
107.61124°
Mean motion
3.81728 °/min
Orbital period
94.31 mins
BSTAR
-0.00008072
Loading maneuver chart data...
Computing Atmospheric mass density...
Loading historical data...
Loading historical data...
Loading historical data...
Loading historical data...
Loading historical data...
Loading historical data...
Loading historical data...

Documentation

Showing up to 5 results
|